Race Results for
Jesse Blancarte 10K Time Trial
Gardner, KS
(Event Information)
View By:
Individual Time Trial on 05/03/2009

Note: Ranking points are NOT upgrade points. An explanation of ranking points can be found here.


Men - Cat/4/5

 Place Points NameCity, StateTime USAC #BibTeam
1540.00Geoffrey Allen   Leawood, KS0:13:34 271903  49 KCOI Boulevard
2541.72Joel Terry   Prairie Village, KS0:13:41 266270  70 SKC Racing
3Daniel Meredith   0:13:47  47 Capp's-Rebound
4545.17Carl Schipfmann   Lenexa, KS0:13:55 219343  52 KCOI Boulevard
5546.90Randall Booth   Bates City, MO0:13:56 96237  27 Bike Stop
6548.62James Bertoncin   Merriam, KS0:14:07 204003  16 Bertoncini Cycling
7550.34Chris Hudson   Kansas City, MO0:14:11 264887  Renaissance Cycling
8552.07Brian Prosser   Shawnee, KS0:14:53 281893  57 SKC Racing
9Dirk Davis   0:14:54  21 Blue River Bicycle Club
10555.52Bryan Kidney   Shawnee, KS0:15:04 285737  56 Unattached
11557.24Jonathan Sink   Overland Park, KS0:15:12 108767  36 NRC/PedalMasher
12558.97John Rhein   Overland Park, KS0:15:17 218782  15 Renaissance Cycling
13560.69Brian Casement   Lees Summit, MO0:15:18 63946  45 
14562.41Michael Ruder   Olathe, KS0:15:24 280536  53 Kansas City Bicycle Club
15564.14Kyle Skinner   Peculiar, MO0:15:25 293746  54 Unattached
16Mike Larma   0:15:30  58 Unattached
17567.59Jeremy Smith   Bonner Springs, KS0:15:31 275157  31 Renaissance Cycling
18569.31Jesse Miguel   Shawnee, KS0:15:31 244278  25 SKC Racing
19571.03adam wagner   Leawood, KS0:15:38 267117  34 Blue River Bicycle Club
20572.76Joey Vecchione   Olathe, KS0:15:47 260537  39 SKC Racing
21574.48pat robinson   Olathe, KS0:15:57 254699  55 Kansas City Bicycle Club
22Pat Walsh   0:15:59  32 Unattached
23577.93Cody Mathias (1 - Cat4)   Olathe, KS0:16:20 260819  61 Cycle City Racing
24John Tye   0:16:23  Unattached
25Chris Bryant   0:16:56  43 Unattached
26583.10Anthony Rosales   Lenexa, KS0:16:58 221248  69 Blue River Bicycle Club
27Brad Cope   0:17:24  42 Unattached
28Bert Soto   0:18:15  17 Unattached
29Steve Schwada   0:19:24  19 Unattached
30590.00Andrew Wilson   Kansascity, MO0:19:54 288753  44 BRBC
DNFCameron Rex   Shawnee, KS 243878  51 SKC Racing

Men - Cat 1/2/3

 Place Points NameCity, StateTime USAC #BibTeam
1440.64Phillip Gronniger   Castle Rock, CO0:12:13 14262  12 Epic Cycling Team
2453.09Craig Henwood   Olathe, KS0:12:49 245535  40 SKC Racing
3465.53Brian Bradley   Blue Springs, MO0:12:55 4563  63 Bicycle Shack Racing
4477.98Richard Shurtz   Glen Allen, VA0:12:58 258862  35 Kinetic Cycling
5490.43Jack Mason   Topeka, KS0:12:59 196516  46 Capps Rebound
6502.87Matthew Baugher   St. Joseph, MO0:13:02 226843  41 Epic Cycling Team
7515.32Stephen Schneller   Lawrence, KS0:13:09 184935  66 Cycle City Racing
8527.77Joseph Jakofcich   Edmond, OK0:13:10 60327  22 OKC Velo Club
9540.21Alex Edwards   Parkville, MO0:13:15 208217  18 SKC Racing
10552.66Frank Leija   Suffolk, VA0:13:16 146175  59 Century Road Club Association-Die Hard
11565.11Matt Maher   Independence, MO0:13:34 220772  62 Planet X
12577.55Robert Ades   Lenexa, KS0:13:52 198910  33 Blue River Bicycle Club
13590.00Freddie Timbrell (1 - Cat3)   Overland Park, KS0:14:08 201823  60 Blue River Bicycle Club

Men - Master - MR - 45-99

 Place Points NameCity, StateTime USAC #BibTeam
1467.09Bruce Tanner   Olathe, KS0:12:39 62854  28 OKC Velo Club
2473.24Dennis Weinbeck   Topeka, KS0:12:58 153760  26 Capp's-Rebound
3479.38Harold Parker   Lenexa, KS0:13:20 27258  13 360 Racing
4485.53Craig Bissell   Prairie Village, KS0:13:23 149720  10 360 Racing
5491.67Mark Thomas   Shawnee, KS0:13:28 35363  24 Localcycling.com
6497.82James Conway   Miramar Beach, FL0:13:46 223247  Blue River Bicycle Club
7503.96Jeffrey Unruh   Topeka, KS0:13:47 200891  30 jar
8510.11Robert Swift   Lees Summit, MO0:14:03 263088  Bicycle Shack Racing
9516.25David Bottoms   Overland Park, KS0:14:20 175060  38 Blue River Bicycle Club
10John Mathias   0:14:50  64 Unattached
11528.54Jay Raupp   Lenexa, KS0:14:53 50699  29 Unattached
12534.69Gil Radolovich   Leawood, KS0:15:07 237584  37 Blue River Bicycle Club
13540.84L Michael Smithmier   Overland Park, KS0:15:11 147913  Blue River Bicycle Club
14546.98Jon Parker   Kansas City, MO0:15:15 263611  50 KCOI/Boulevard
15553.13Mark Breeding   Independence, MO0:15:25 224993  Bicycle Shack Racing
16559.27Kevin Hawker   Topeka, KS0:15:29 47294  village CycleSport Redline Racing
17565.42David Mathews   Prairie Village, KS0:15:48 269603  11 Unattached
18571.56Brian Mellott   Shawnee, KS0:16:13 141218  68 GP VeloTek
19577.71Arthur Berger   Leawood, KS0:16:20 255320  20 Blue River Bicycle Club
20Gary Young   0:16:37  Unattached
21590.00Richard Bowman   Kansas City, MO0:17:43 220573  Cycle City Racing

Women - Cat 1/2/3/4

 Place Points NameCity, StateTime USAC #BibTeam
1540.00Linda Meredith   Berryton, KS0:15:34 293707  48 Capp's-Rebound
2552.50Wanda Simchuk   Shawnee, KS0:15:45 124910  67 twin six / soldergal.com
3565.00Teresa Jarzemkoski   Shawnee, KS0:15:50 155694  23 Localcycling.com
4577.50Donna Stevens   Merriam, KS0:15:50 266838  14 Localcycling.com
5Christina Hergott   0:17:53  65 Unattached

Report missing or incorrect license numbers

Volkswagen
USACDFBonk BreakerShimanoSierra NevadaSpy
UCI USA Cycling is the official governing body for all disciplines of competitive cycling in the United States. The 501c3, membership-based organization aims both to achieve sustained success in international cycling competition and to grow competitive cycling in America while delivering an exceptional customer experience.
View Children's Online Privacy Protection Policy
US Olympic Committee